Location: St. Louis
(38.6270°N, 90.1994°W)
Time: 09:48:30
(UTC-06:00)

Vanguard 2 Rocket - Pass Details

Date: 08 December 2021
Orbit: 553 x 3325 km, 32.9° (Epoch: 23 January)

Event Time Altitude Azimuth Distance (km) Brightness Sun altitude
Rises 23:48:46 0° 268° (W) 4,998 - -74.1°
Reaches altitude 10° 23:52:55 10° 252° (WSW) 4,450 - -74.1°
Maximum altitude 00:01:22 20° 211° (SSW) 4,411 - -74.0°
Drops below altitude 10° 00:12:26 10° 172° (S) 5,940 - -73.6°
Sets 00:19:34 0° 159° (SSE) 7,217 - -73.1°
